Regional Weather Roundup
Issued by NWS

Home | Current Version | Previous Version | Text Only | Print | Product List | Glossary Off
Versions: 1 2 3 4 5 6 7 8 9 10 11 12 13 14 15 16 17 18 19 20 21 22 23 24 25 26 27 28 29 30 31 32 33 34 35 36 37 38 39 40 41 42 43 44 45 46 47 48 49 50

000
ASUS43 KMPX 220010
RWRMN
WEATHER ROUNDUP FOR MINNESOTA
NATIONAL WEATHER SERVICE TWIN CITIES/CHANHASSEN MN
700 PM CDT WED JUN 21 2017


NOTE: "FAIR" INDICATES FEW OR NO CLOUDS BELOW 12,000 FEET WITH NO
SIGNIFICANT WEATHER AND/OR OBSTRUCTIONS TO VISIBILITY. N/A MEANS
CURRENT SKY AND/OR WEATHER CONDITIONS ARE NOT AVAILABLE.

MNZ060>063-068>070-220100-
   Twin Cities Metro

CITY           SKY/WX    TMP DP  RH WIND       PRES   REMARKS
TWIN CITIES    MOSUNNY   79  59  50 S15       29.74F
6HR MIN TEMP:  77; 6HR MAX TEMP:  81;

ST PAUL        SUNNY     78  60  53 S16       29.75F
CRYSTAL        SUNNY     78  57  48 SE16      29.72F
BLAINE         MOSUNNY   81  61  50 S13       29.74F
LAKEVILLE      SUNNY     75  61  60 S9        29.75F
EDEN PRAIRIE   SUNNY     79  61  53 SE14      29.73F
6HR MIN TEMP:  77; 6HR MAX TEMP:  82;

SOUTH ST PAUL  SUNNY     78  58  48 S10       29.75F
LAKE ELMO      FAIR      77  59  53 S15       29.77F
$$
MNZ001>005-007-008-013>017-022>024-027-028-220100-
   Northwest Minnesota

CITY           SKY/WX    TMP DP  RH WIND       PRES   REMARKS
BEMIDJI        CLOUDY    74  56  53 SE10      29.63F
HALLOCK        MOSUNNY   79  63  57 W20G26    29.57S
ROSEAU         MOSUNNY   70  63  78 SE7       29.60F
WARROAD        SUNNY     66  61  82 E10       29.62F
THIEF RVR FALL CLOUDY    70  64  83 E7        29.61S
CROOKSTON      MOSUNNY   81  63  54 NW14G22   29.59R
FOSSTON        CLOUDY    72  57  60 S7        29.64R
DETROIT LAKES  CLOUDY    79  61  53 S12       29.64S
MOORHEAD       CLOUDY    75  63  64 S9G18     29.60F
PARK RAPIDS    CLOUDY    78  54  43 S10       29.66F
MAHNOMEN       CLOUDY    77  60  55 S16       29.60S
$$
MNZ006-009>011-018-025>026-220100-
   North Central Minnesota

CITY           SKY/WX    TMP DP  RH WIND       PRES   REMARKS
BAUDETTE       CLOUDY    63  59  87 E8        29.65F
FLAG ISLAND    CLOUDY    61  55  82 E8        29.63F
INTL FALLS     CLOUDY    64  55  72 SE8       29.70F
6HR MIN TEMP:  62; 6HR MAX TEMP:  72; 6HR PCP:  0.02;

WASKISH        CLOUDY    66  57  72 E7        29.65F
BIG FORK       CLOUDY    66  55  68 SE3       29.71S
LONGVILLE      SUNNY     75  55  50 S15       29.69S
GRAND RAPIDS   CLOUDY    72  55  55 S9        29.72F
CRANE LAKE     CLOUDY    66  52  59 CALM      29.77R
ORR            CLOUDY    64  52  63 CALM      29.71S
COOK           CLOUDY    66  54  63 SE6       29.73F
WALKER         FAIR      74  56  52 S8        29.66F
$$
MNZ012-019>021-037-220100-
   Northeast Minnesota

CITY           SKY/WX    TMP DP  RH WIND       PRES   REMARKS
DULUTH         CLOUDY    64  47  53 SE14      29.76F
6HR MIN TEMP:  64; 6HR MAX TEMP:  72;

ELY            LGT RAIN  66  50  55 S6        29.76R
HIBBING        PTSUNNY   65  57  75 SE8       29.72F
EVELETH        MOSUNNY   65  47  51 SE6       29.75F
DULUTH HARBOR  PTSUNNY   59  54  82 E7        29.77F
TWO HARBORS    MOSUNNY   66  52  59 E8        29.76F
SILVER BAY     CLOUDY    64  48  55 CALM      29.77F
GRAND MARAIS     N/A     51  46  83 NE7       29.79F
G MARAIS ARPRT CLOUDY    57  43  58 E3        29.82F
$$
MNZ029>031-032-039>041-046>048-054>057-064-220100-
   West Central Minnesota

CITY           SKY/WX    TMP DP  RH WIND       PRES   REMARKS
FERGUS FALLS   CLOUDY    68  66  94 N23G74    29.64R VSB 1/4
WHEATON        SUNNY     84  61  45 S10G16    29.63F
MORRIS         SUNNY     84  63  48 S18       29.63F
ALEXANDRIA     SUNNY     80  61  52 S13       29.68F
ELBOW LAKE     FAIR      82  63  53 S20G26    29.63F
WADENA         MOSUNNY   75  59  57 S12       29.65F
GLENWOOD       SUNNY     81  63  54 S14       29.68F
APPLETON       SUNNY     84  61  45 S7        29.64F
BENSON         SUNNY     82  63  51 S12       29.67F
ORTONVILLE     SUNNY     84  63  48 S8        29.64F
MADISON        SUNNY     88  64  45 S10       29.66F
WILLMAR        FAIR      81  64  57 S5        29.71F
$$
MNZ033>034-036-042>043-049>051-058-059-220100-
   Central Minnesota

CITY           SKY/WX    TMP DP  RH WIND       PRES   REMARKS
ST CLOUD       SUNNY     80  60  50 S13       29.71F
6HR MIN TEMP:  77; 6HR MAX TEMP:  82;

SAUK CENTRE    FAIR      80  61  52 S14       29.69F
PAYNESVILLE    SUNNY     82  58  44 S10       29.72S
AITKIN         SUNNY     73  55  53 S12       29.69F
PINE RIVER     SUNNY     75  57  53 S8        29.72F
BRAINERD       SUNNY     75  56  51 S9        29.70F
STAPLES        MOSUNNY   75  55  50 S13       29.67F
LONG PRAIRIE   FAIR      79  61  53 SE16      29.69F
LITTLE FALLS   SUNNY     79  55  44 S10       29.70F
LITCHFIELD     SUNNY     79  64  61 S6        29.72F
BUFFALO        SUNNY     78  59  51 SE9G17    29.74S
MAPLE LAKE     SUNNY     80  63  54 S5        29.73F
HUTCHINSON     MOSUNNY   78  64  60 S8        29.73F
$$
MNZ037-044-045-052-053-220100-
   East Central Minnesota

CITY           SKY/WX    TMP DP  RH WIND       PRES   REMARKS
PRINCETON      SUNNY     81  57  44 S9G16     29.73F
MORA           SUNNY     75  52  43 S10       29.75F
CAMBRIDGE      SUNNY     82  61  47 S12       29.72F
RUSH CITY      SUNNY     77  55  47 S9        29.75F
MOOSE LAKE     SUNNY     75  54  46 S5        29.72F
HINCKLEY       FAIR      77  55  47 S12G17    29.74F
CLOQUET        MOSUNNY   66  46  48 E9        29.76F
MCGREGOR       SUNNY     73  54  49 S13       29.72F
$$
MNZ071>073-080-081-089-090-097-098-220100-
   Southwest Minnesota

CITY           SKY/WX    TMP DP  RH WIND       PRES   REMARKS
MONTEVIDEO     SUNNY     84  64  51 S9        29.67F
GRANITE FALLS  SUNNY     84  66  55 SE10      29.70F
CANBY          SUNNY     85  65  50 CALM      29.68F
MARSHALL       SUNNY     84  66  54 S7        29.69F
REDWOOD FALLS  SUNNY     81  63  54 S12       29.70F
OLIVIA         SUNNY     79  63  57 S10       29.70F
PIPESTONE      SUNNY     84  66  54 S9        29.71F
WINDOM         SUNNY     81  66  61 SE7       29.73S
WORTHINGTON    MOSUNNY   81  70  69 E8        29.73S
JACKSON        SUNNY     79  68  69 SE7       29.74S
TRACY          SUNNY     84  67  57 S6        29.71F
SLAYTON        SUNNY     83  48  30 S6        29.73S HAZE
$$
MNZ065>067-074>077-082>085-091>093-220100-
   South Central Minnesota

CITY           SKY/WX    TMP DP  RH WIND       PRES   REMARKS
MANKATO        SUNNY     76  63  64 SE16      29.75F
NEW ULM        MOSUNNY   79  63  57 SE9       29.72F
ST JAMES       SUNNY     79  66  65 SE8       29.74S
GLENCOE        SUNNY     80  65  61 SE9G16    29.73F
FARIBAULT      SUNNY     77  63  61 SE9       29.77F
OWATONNA       SUNNY     75  63  64 SE14      29.77F
WASECA         SUNNY     73  61  64 SE10G16   29.77F
ALBERT LEA     SUNNY     75  63  64 SE14      29.77F
$$
MNZ078>079-086>088-094>096-220100-
   Southeast Minnesota

CITY           SKY/WX    TMP DP  RH WIND       PRES   REMARKS
ROCHESTER      PTSUNNY   73  62  68 SE13      29.80F
6HR MIN TEMP:  72; 6HR MAX TEMP:  75;

RED WING       SUNNY     79  54  41 S9G16     29.77F
STANTON        SUNNY     78  61  55 SE9G16    29.75F
DODGE CENTER   SUNNY     73  61  64 SE10      29.79F
WINONA         SUNNY     73  57  56 S5        29.81F
AUSTIN         CLOUDY    72  61  68 SE10      29.79S
PRESTON        PTSUNNY   72  60  66 S10       29.82S
$$
ABBREVIATIONS USED IN REMARKS
   TC - TEMPERATURES IN CELSIUS
  WCI - WIND CHILL INDEX
   HX - HEAT INDEX
  VSB - VISIBILITY
$$




USA.gov is the U.S. government's official web portal to all federal, state and local government web resources and services.